Hourly Data Report for September 21, 2017

All times are specified in Local Standard Time (LST). Add 1 hour to adjust for Daylight Saving Time where and when it is observed.

SUMMERSIDE
PRINCE EDWARD ISLAND

46°26'28.000" N
63°50'17.000" W
12.20 m
8300596
71702
WSD

Download Data

Hourly Data (September 2017)
Hourly Data Report for September 21, 2017
Temp Definition
°C
Dew Point Temp Definition
°C
Rel Hum Definition
%
Wind Dir Definition
10's deg

Wind Spd Definition
km/h
Visibility Definition
km
Stn Press Definition
kPa
Hmdx Definition


Wind Chill Definition


Weather Definition


TIME
00:00 15.0 13.2 89 3 14   101.66     LegendNANA
01:00 14.8 12.2 85 3 14   101.67     LegendNANA
02:00 13.7 11.8 89 2 11   101.68     LegendNANA
03:00 13.2 12.4 95 35 13   101.69     LegendNANA
04:00 11.2 10.6 96 32 5   101.72     LegendNANA
05:00 10.8 10.3 97 34 4   101.75     LegendNANA
06:00 13.5 11.6 88 2 16   101.76     LegendNANA
07:00 14.9 12.0 83 3 22   101.80     LegendNANA
08:00 16.0 11.3 74 5 29   101.85     LegendNANA
09:00 17.3 10.8 66 5 29   101.92     LegendNANA
10:00 17.8 9.7 59 5 28   102.01     LegendNANA
11:00 17.8 8.4 54 4 27   102.03     LegendNANA
12:00 18.0 10.0 59 4 26   102.02     LegendNANA
13:00 17.7 10.1 61 3 27   102.05     LegendNANA
14:00 17.3 9.5 60 4 29   102.04     LegendNANA
15:00 17.1 9.9 62 5 24   102.06     LegendNANA
16:00 16.3 8.5 60 5 22   102.08     LegendNANA
17:00 15.5 8.5 63 5 20   102.14     LegendNANA
18:00 13.7 8.3 70 6 19   102.13     LegendNANA
19:00 12.6 8.1 74 7 16   102.15     LegendNANA
20:00 12.1 8.2 77 6 15   102.16     LegendNANA
21:00 11.9 8.6 80 6 16   102.18     LegendNANA
22:00 12.1 8.8 80 6 16   102.19     LegendNANA
23:00 10.3 8.0 86 9 9   102.17     LegendNANA

Notes on Data Quality.

Legend

  • E = Estimated
  • M = Missing
  • NA = Not Available
  • ‡ = Partner data that is not subject to review by the National Climate Archives
Date modified: